Find Tianfu Dongpo 09

NORAD ID: 54685 Int'l Des: 2022-167 Owner: CGSTL/HUANTZ Country: CN operational
LEOCIRCULARRETROGRADE

リアルタイム位置

3D地球を読み込み中...

Tianfu Dongpo 09について

説明を読み込み中...

次回通過

Passes for default location (London). Set your location on the main map for personalized predictions.

高度履歴

Loading altitude history...

軌道要素

1 54685U 22167D 26120.58618595 .00011504 00000-0 33819-3 0 9992
2 54685 97.6860 289.5190 0001093 307.5779 52.5364 15.35278829188148
Epoch: Apr 30, 2026 • Age: 10 hours

現在のステータス

高度 463.0 km
速度 7.64 km/s
衛星直下点 12.66°N, 109.96°W
打ち上げ日 Dec 9, 2022
運用期間 3.3 years
タイプ other

技術仕様

分類 Payload
質量 42.00 kg
乾燥質量 42.00 kg
総質量 42.00 kg
長さ 1.50 m
直径 1.00 m
スパン 1.50 m
形状 Box
製造者 CGSTL
バスタイプ JL-1
フェーズステータス In Orbit
所有者/国 CGSTL/HUANTZ/CN

Most Searched